Flag for Ireland Weather past 2 weeks in Cork, Ireland

Now
46 °F

Passing clouds.


Feels Like: 42 °F
Forecast: 42 / 58 °F
Wind: 8 mph from East

Location: Cork Airport

Current Time: Apr 18, 2015 at 6:53:24 AM

Latest Report: Apr 18, 2015 at 6:00 AM


Visibility: 19 mi

Pressure: 30.26 "Hg

Humidity: 85%

Dew point: 42 °F

Location of CorkLocation

Historic Weather in Cork — Graph

°F

Cork temperature yesterday

Maximum temperature yesterday: 57 °F (at 2:00 PM)
Minimum temperature yesterday: 45 °F (at 5:00 AM)
Average temperature yesterday: 50 °F

Past Weeks' High & Low Weather Summary

 TemperatureHumidityPressure
High60 °F (Apr 7, 1:00 PM)100% (Apr 5, 12:00 AM)30.65 "Hg (Apr 5, 12:00 AM)
Low36 °F (Apr 11, 7:00 AM)49% (Apr 11, 3:00 PM)29.76 "Hg (Apr 10, 10:00 PM)
Average48 °F84%30.24 "Hg
* Reported Apr 3 5:00 AM — Apr 18 5:00 AM, Cork, Weather by CustomWeather, © 2015

Note: Actual official high and low records may vary slightly from our data, if they occured in-between our weather recording intervals... More about our weather records

Advertising

Cork weather history for previous 24 hours

 ConditionsComfort  
Time TempWeatherWind HumidityBarometerVisibility
5:00 AM
Sat, Apr 18
48 °FOvercast.9 mph80%30.25 "Hg19 mi
3:00 AM48 °FOvercast.8 mph82%30.25 "Hg19 mi
2:00 AM49 °FOvercast.5 mph83%30.26 "Hg12 mi
1:00 AM49 °FOvercast.5 mph82%30.25 "Hg12 mi
12:00 AM49 °FOvercast.7 mph82%30.24 "Hg12 mi
11:00 PM
Fri, Apr 17
50 °FOvercast.6 mph80%30.23 "Hg12 mi
9:00 PM50 °FOvercast.6 mph79%30.20 "Hg12 mi
8:00 PM50 °FOvercast.5 mph77%30.18 "Hg16 mi
7:00 PM51 °FOvercast.6 mph76%30.16 "Hg16 mi
6:00 PM52 °FOvercast.6 mph75%30.14 "Hg16 mi
5:00 PM52 °FOvercast.7 mph77%30.13 "Hg17 mi
4:00 PM54 °FOvercast.8 mph75%30.13 "Hg19 mi
3:00 PM56 °FOvercast.6 mph72%30.11 "Hg19 mi
2:00 PM57 °FOvercast.6 mph66%30.11 "Hg19 mi
1:00 PM55 °FOvercast.6 mph66%30.11 "Hg31 mi
12:00 PM53 °FOvercast.5 mph67%30.09 "Hg31 mi
11:00 AM52 °FOvercast.3 mph65%30.08 "Hg37 mi
10:00 AM49 °FOvercast.5 mph68%30.07 "Hg37 mi
9:00 AM46 °FPartly sunny.5 mph75%30.06 "Hg37 mi
8:00 AM45 °FPartly sunny.3 mph78%30.04 "Hg31 mi
6:00 AM45 °FOvercast.5 mph77%29.99 "Hg19 mi
Weather by CustomWeather, © 2015

See weather overviewHow to use our weather pages